Temp
17 17 18 19 20 21 21 21 22 22 21 21 21 21 21 21 20 20 20 24 25 24 25 24 25 25 25 27 26 25 30 30 30 30 31 31 31 33 32 32 31 31 31 29 25
18 17 18 19 20 21 21 22 22 22 22 22 21 21 21 20 19 19 25 24 25 24 24 25 26 26 27 27 27 29 29 30 28 30 31 31 29 31 33 32 32 31 27 25 24
18 18 18 19 20 21 22 22 22 22 22 22 21 21 21 20 20 26 25 25 24 25 25 25 25 27 27 27 27 26 30 28 30 29 29 30 30 30 33 33 34 34 29 26 25
18 19 19 19 20 21 22 22 22 22 22 22 21 21 20 19 27 25 25 25 24 25 25 25 26 27 27 28 27 29 27 28 30 29 29 30 30 31 31 34 31 31 30 26 26
18 19 20 20 20 21 22 22 22 22 22 22 21 21 19 22 26 25 26 25 25 25 25 26 27 27 28 28 27 28 29 28 30 29 28 27 30 31 32 33 31 29 27 26 27
19 19 20 20 20 21 21 21 22 22 21 21 21 20 19 26 25 25 26 25 25 24 24 25 27 27 27 27 28 28 28 29 29 30 30 30 30 30 31 29 29 28 28 27 27
19 20 21 21 21 21 21 21 21 21 21 21 20 19 21 26 24 24 24 25 25 25 25 24 26 28 27 27 27 27 29 29 29 29 31 29 31 29 27 28 29 28 28 28 27
20 20 21 21 21 21 21 21 21 21 21 20 20 19 24 24 24 24 24 24 24 25 25 25 25 27 27 26 27 27 27 30 29 28 30 30 30 27 26 27 26 26 26 28 28
20 20 21 22 22 22 21 20 21 21 20 20 19 19 26 24 23 24 25 25 24 24 25 25 26 26 26 28 28 27 28 27 29 28 29 30 31 27 25 24 24 25 26 27 28
19 20 21 22 22 23 21 20 20 20 19 19 18 21 24 27 24 24 25 25 25 25 26 26 26 27 26 28 28 27 27 27 27 28 29 29 29 26 24 23 23 23 24 25 25
20 21 22 22 23 23 21 20 21 21 18 24 25 24 25 25 25 24 25 25 26 26 27 25 27 27 28 27 27 26 26 26 28 27 27 29 27 25 23 22 22 22 22 22 22
20 21 22 23 23 23 21 23 22 22 23 22 22 23 23 25 27 25 25 27 26 27 25 26 27 27 26 25 26 26 26 27 28 27 27 28 27 24 22 20 19 19 18 19 20
20 21 21 23 23 21 22 22 22 21 23 23 22 23 25 25 26 27 27 26 26 26 26 27 27 25 26 26 26 26 26 27 27 27 27 27 27 25 23 22 20 18 17 17 17
19 21 21 21 20 21 22 22 22 21 23 24 24 25 24 26 27 27 27 28 26 27 25 26 26 26 26 26 27 26 27 27 27 27 28 26 28 26 23 22 20 17 17 16 16
19 22 22 21 21 21 21 22 22 22 24 26 25 25 25 27 28 26 25 27 27 26 26 27 26 26 26 27 27 28 26 26 27 27 26 27 27 29 22 24 21 17 16 16 16
20 21 22 22 22 21 21 22 22 23 24 26 26 26 26 27 28 26 27 27 26 26 25 27 26 27 28 27 27 27 26 25 24 26 26 28 27 28 27 25 20 17 16 15 15
21 22 21 20 19 22 22 22 23 23 25 25 25 26 26 27 27 27 26 26 27 25 26 27 27 27 27 27 26 26 26 26 26 25 26 23 24 28 23 20 20 18 16 15 15
21 21 20 20 21 22 22 23 22 23 23 24 25 25 26 25 26 26 26 26 25 26 25 26 26 26 27 28 28 26 27 27 24 25 27 22 25 27 21 19 18 17 16 16 15
21 21 20 20 22 22 23 22 22 22 22 22 24 24 25 25 25 25 25 26 27 25 26 25 26 25 25 26 28 25 25 25 24 20 23 26 23 22 19 19 18 18 17 17 17
17 17 18 20 21 21 22 20 21 21 21 22 23 23 24 24 24 24 25 25 25 24 24 25 25 25 23 25 23 25 24 24 24 23 22 23 22 26 19 20 20 19 18 17 17
16 20 19 20 20 20 21 19 19 21 20 21 22 22 23 23 23 24 24 25 24 24 24 24 24 24 24 25 26 23 24 21 23 23 24 24 25 24 24 23 20 20 19 18 17
11 20 18 20 21 15 18 16 16 19 19 19 20 20 21 21 22 22 23 24 22 24 24 22 23 24 25 22 21 22 25 24 25 23 20 21 23 21 21 21 21 21 19 18 18
12 13 17 16 17 16 15 16 17 17 17 17 18 17 18 20 20 21 21 20 20 22 23 22 22 23 23 23 21 23 22 20 20 20 23 22 24 19 20 20 20 20 19 18 18
13 16 14 13 12 13 13 15 16 16 16 15 15 15 15 17 18 19 19 19 18 19 18 20 20 22 23 24 23 21 21 19 22 22 24 23 24 21 21 21 20 19 19 18 18
9 9 7 12 13 10 11 12 13 13 14 14 14 12 13 14 15 16 15 15 18 17 18 18 20 20 22 22 22 22 23 21 21 23 22 24 22 23 23 22 22 22 19 18 18
9 9 8 9 8 10 10 9 10 10 10 12 11 10 11 12 12 11 12 13 15 16 17 16 19 19 19 21 21 21 22 22 22 23 22 23 22 22 23 22 21 20 19 19 18
4 4 7 7 9 10 8 8 9 8 10 10 9 9 10 11 10 11 11 12 12 13 14 15 17 17 18 19 20 19 21 22 22 22 22 22 24 23 21 21 21 22 20 19 19
Height
807 804 802 800 798 798 797 797 797 797 797 798 798 798 798 798 798 797 796 792 791 794 797 799 801 801 802 803 805 806 813 820 821 821 812 798 800 786 785 786 784 784 785 787 790
806 803 801 799 797 796 795 795 795 795 795 796 796 797 796 796 796 794 789 789 790 793 796 798 800 802 803 804 806 806 815 816 814 809 807 801 803 794 790 787 784 785 788 790 792
807 804 801 797 795 794 793 793 793 793 793 794 794 795 795 795 795 786 785 788 791 793 795 796 799 800 804 805 808 812 814 813 807 805 805 802 799 794 791 792 782 783 784 789 791
808 804 801 797 794 793 792 791 791 791 791 792 793 794 794 794 798 785 786 788 791 793 795 797 799 802 806 808 808 812 812 810 802 801 804 803 797 795 793 783 782 781 781 786 789
808 803 800 797 794 792 791 790 790 789 790 790 791 792 794 794 787 784 784 788 791 793 794 795 798 802 806 807 809 810 808 807 799 799 800 801 798 796 791 783 783 782 784 785 786
808 804 799 796 794 792 791 790 789 788 788 789 791 792 794 793 784 783 785 788 790 792 795 795 796 798 803 806 807 807 807 804 800 798 796 799 796 795 790 788 784 785 785 785 784
808 803 799 796 793 792 791 789 789 788 788 789 790 791 792 785 783 784 787 789 790 792 794 796 796 798 801 807 804 806 809 803 802 800 797 797 800 805 800 792 789 787 785 785 785
807 802 798 794 792 791 790 789 789 789 789 789 791 791 787 782 783 784 786 789 791 792 794 795 797 798 800 803 807 811 812 814 804 803 797 797 812 807 803 798 797 793 788 782 781
806 800 796 792 790 789 789 789 788 789 789 790 792 792 784 781 782 782 785 787 791 793 795 796 798 802 803 807 814 815 823 823 813 804 803 801 804 807 806 805 803 797 790 784 782
804 798 793 789 788 787 788 788 789 789 790 790 791 793 781 778 778 780 784 786 789 793 796 797 800 804 809 808 825 825 825 824 822 808 802 805 805 807 809 809 808 803 796 791 790
801 795 790 787 786 785 786 788 791 791 790 781 779 780 777 777 778 781 783 785 787 791 799 800 804 809 805 808 811 817 823 825 811 806 809 804 808 812 811 810 810 807 805 801 799
799 792 787 784 784 784 786 786 788 791 787 776 777 778 776 776 778 779 782 786 789 796 798 804 807 799 802 809 813 818 821 818 806 805 806 801 807 813 812 816 818 818 817 811 807
797 789 785 783 783 785 786 788 787 787 789 777 774 773 772 775 777 776 778 781 788 797 797 801 798 798 801 809 813 815 817 814 812 806 804 805 807 811 813 814 817 821 820 817 815
794 788 784 783 788 786 787 787 786 786 797 781 774 768 769 769 776 769 772 776 788 791 799 799 792 799 803 806 805 815 802 804 810 813 816 807 817 809 812 814 817 823 823 823 820
793 788 786 785 786 787 789 785 785 787 811 773 771 765 766 768 765 771 770 773 784 790 794 794 795 799 802 796 797 800 799 804 805 809 814 810 815 792 813 812 816 823 825 825 824
793 789 787 787 787 788 786 784 786 802 810 777 768 772 774 768 766 769 771 771 776 787 789 786 785 786 783 787 789 791 800 808 813 810 818 800 807 797 797 801 815 823 825 826 826
794 792 790 789 791 786 784 785 802 808 780 784 780 773 773 773 771 770 777 782 786 800 798 785 785 781 781 789 792 793 801 814 818 820 814 813 815 791 801 809 811 819 824 826 826
794 793 792 791 789 786 784 791 812 798 792 780 779 775 779 775 775 772 778 781 780 782 793 795 798 781 775 779 783 792 792 805 827 820 805 820 809 791 802 808 812 817 822 823 825
794 793 793 791 787 786 787 805 802 801 796 793 781 784 781 778 778 777 776 773 769 774 788 792 791 775 775 773 774 793 799 791 807 828 822 794 806 800 806 808 811 813 817 819 820
796 795 796 791 787 787 793 808 803 797 796 793 796 787 789 784 782 780 779 772 774 772 771 776 792 776 781 776 784 781 786 802 805 819 826 809 809 787 806 799 802 806 810 814 818
798 796 797 790 788 791 801 809 805 796 798 799 796 793 788 787 785 782 778 772 769 771 771 775 782 784 781 780 775 791 789 801 796 802 800 800 790 776 777 782 791 795 801 807 812
808 802 800 789 797 815 812 819 813 803 801 800 797 796 794 791 788 787 781 775 773 769 774 778 781 784 776 780 780 780 776 778 788 798 807 806 789 781 781 781 785 789 796 803 807
821 818 806 797 815 822 823 818 813 811 810 806 805 804 798 795 795 785 781 779 777 773 775 776 783 787 782 782 782 780 782 787 792 792 786 796 779 782 783 784 786 789 793 798 803
826 820 819 822 836 834 833 825 819 815 815 818 816 811 810 804 795 790 787 785 784 782 781 777 780 775 778 770 771 782 783 788 783 785 777 777 770 782 780 780 783 785 788 793 797
840 848 853 836 833 842 840 836 831 828 823 821 819 826 824 817 807 799 805 799 786 788 785 784 778 779 770 770 772 772 771 779 781 771 778 765 773 770 769 771 771 774 784 789 792
851 855 854 851 851 843 844 845 842 841 839 827 832 833 829 824 822 822 819 812 801 793 790 790 778 777 776 769 772 772 765 764 765 763 765 761 764 764 763 765 769 772 777 780 783
864 864 861 860 852 845 850 853 847 850 839 837 843 839 831 827 831 826 822 818 813 810 803 799 787 787 778 774 771 773 756 755 756 756 758 763 752 756 763 764 763 763 768 772 777
Wind_Speed
17 14 11 9 7 6 5 5 5 5 5 5 5 5 6 7 8 8 6 5 3 7 11 10 5 4 2 3 2 2 2 3 4 2 4 7 9 3 4 4 3 2 1 2 17
19 17 14 10 8 6 6 5 5 5 5 5 4 4 5 6 7 8 4 8 9 13 12 9 6 5 3 2 2 1 0 3 2 2 6 8 4 9 3 3 1 3 3 10 17
21 17 16 13 9 7 6 5 4 4 4 4 4 3 3 4 3 1 2 14 18 11 9 7 9 2 3 1 1 2 1 1 2 6 5 5 5 2 3 3 5 4 6 12 17
23 18 16 15 10 7 6 4 3 3 4 4 4 3 2 1 2 2 3 17 16 11 11 8 4 3 3 4 2 2 2 3 3 1 1 5 6 3 3 3 4 6 9 14 16
24 21 15 14 12 8 5 3 2 2 4 5 5 4 2 2 4 5 14 19 14 11 7 6 4 4 5 4 3 2 2 4 7 9 5 2 4 3 5 11 8 2 10 14 15
24 23 15 11 11 8 6 4 3 1 4 6 5 5 2 2 1 2 19 18 13 10 7 5 4 2 5 2 1 2 3 6 5 5 2 4 2 1 9 14 5 4 9 11 16
27 26 17 10 8 6 5 5 3 2 4 6 6 3 2 2 2 8 19 11 14 9 6 4 6 2 4 4 1 1 4 3 3 4 4 2 5 6 14 11 8 7 10 11 13
30 28 19 11 5 5 3 4 3 2 4 6 6 2 4 2 2 13 13 10 9 8 4 7 4 4 1 3 2 1 1 3 3 5 2 3 6 8 14 11 9 10 11 13 15
31 30 21 11 5 4 2 1 1 3 5 6 2 0 3 2 4 12 14 7 8 6 5 6 2 2 3 3 3 4 3 2 2 2 6 4 1 4 11 10 10 11 11 8 11
33 32 22 10 5 3 1 3 4 3 3 0 1 3 3 2 5 11 12 14 4 8 4 2 2 3 3 2 2 3 2 1 3 0 6 2 1 5 9 9 10 12 14 14 10
34 33 21 8 3 2 6 4 1 2 2 5 2 2 2 1 8 5 11 7 6 4 6 3 5 7 5 3 5 5 3 4 4 5 3 2 1 7 7 10 12 14 14 14 13
36 32 18 6 2 7 6 3 2 3 7 10 10 6 5 0 2 4 12 7 5 7 6 4 9 8 5 8 6 5 3 4 7 2 4 3 3 4 9 9 10 11 11 13 12
39 28 15 3 8 9 5 3 8 3 4 5 4 4 5 10 4 9 13 6 4 7 8 8 2 8 7 6 6 5 5 4 5 3 3 3 3 5 3 6 8 11 9 10 11
40 22 12 5 6 3 3 9 9 7 3 3 3 2 5 6 5 7 17 6 3 11 6 5 4 7 6 6 8 5 11 6 4 3 6 1 6 4 4 1 7 9 9 9 10
36 16 9 2 3 2 7 13 1 2 3 2 2 5 4 8 6 6 6 3 9 7 6 4 8 7 6 6 12 4 8 8 5 7 3 6 6 4 3 7 2 6 7 7 7
29 14 9 5 5 8 15 5 2 1 4 2 4 3 6 6 2 4 6 3 2 6 4 6 2 5 5 4 11 4 3 3 2 4 8 10 8 5 5 4 5 2 3 4 5
21 13 20 13 7 14 10 1 1 3 5 5 3 4 4 7 7 4 9 11 10 7 12 12 14 4 4 7 5 5 4 3 5 5 6 4 5 7 5 4 4 7 4 4 5
16 6 14 24 13 11 3 2 3 1 3 4 5 7 3 0 3 4 7 9 9 4 3 9 6 9 8 14 7 8 8 6 5 4 3 3 6 2 4 5 5 6 7 7 7
15 4 11 28 11 8 3 1 2 1 5 7 8 2 1 1 2 3 7 7 7 13 11 7 7 0 2 4 7 6 7 1 4 2 3 6 2 5 6 9 8 8 8 9 10
11 6 9 29 9 3 2 1 1 2 6 2 3 1 2 1 2 1 4 2 4 5 5 5 9 4 4 4 7 5 10 4 2 5 6 5 4 5 11 16 14 13 12 11 12
7 2 20 27 4 4 1 1 3 3 6 3 3 4 3 3 2 2 1 2 3 3 5 6 4 4 4 9 14 5 5 1 1 3 7 10 5 7 15 16 19 16 15 14 15
6 2 24 20 3 2 2 7 5 6 5 4 3 3 3 2 3 4 6 4 7 1 3 2 3 7 11 2 2 1 7 12 9 10 3 3 8 3 6 8 15 15 15 15 16
4 3 14 10 4 4 6 5 3 8 7 6 4 5 5 3 5 5 4 4 11 2 2 5 4 8 7 4 3 6 5 3 2 2 12 8 8 1 5 10 12 12 14 15 17
3 5 4 5 3 4 6 3 6 8 2 6 6 5 5 3 2 5 4 3 9 7 8 2 6 8 12 7 2 4 6 6 9 8 13 14 17 5 9 11 11 14 13 14 16
5 3 2 5 5 6 3 6 6 6 6 8 3 10 6 5 6 3 6 9 4 8 4 2 9 7 12 11 9 14 15 12 14 17 15 16 15 8 12 14 15 15 12 14 15
3 4 3 3 5 7 6 5 6 6 4 6 6 14 9 5 5 6 9 4 5 8 7 5 6 8 18 14 13 20 21 21 21 21 20 20 18 8 7 8 10 14 15 18 18
5 2 2 5 5 5 2 7 7 10 6 4 13 15 12 10 13 15 15 15 15 12 8 5 3 3 16 8 11 16 20 22 21 16 16 18 19 7 9 12 14 14 13 15 15
Wind_Direction
10 1 349 333 313 300 289 280 266 263 258 259 269 281 284 281 283 277 243 217 204 195 179 154 132 121 78 91 66 165 148 151 134 135 348 336 346 338 309 235 181 146 170 34 151
16 13 4 347 327 306 296 282 265 260 254 248 252 273 287 287 289 255 238 176 144 152 150 158 148 138 93 84 64 75 130 152 104 181 320 315 304 320 323 336 193 184 90 140 161
18 14 9 358 338 317 305 292 270 262 247 233 232 259 278 309 254 242 123 161 147 141 145 143 132 124 107 128 106 134 68 163 200 244 259 296 298 271 285 273 261 265 192 176 180
19 12 9 5 352 335 321 312 290 262 229 208 202 220 213 356 116 143 157 162 159 138 133 118 118 108 117 131 127 148 188 221 290 258 260 283 307 264 240 265 2 295 193 177 188
18 11 6 7 4 359 355 352 325 273 210 194 194 182 143 215 256 327 165 167 165 158 145 136 119 131 123 130 133 173 184 207 274 293 277 258 240 283 292 312 325 240 176 189 198
15 9 2 2 6 9 11 6 353 299 182 178 184 163 174 234 300 131 159 159 172 157 159 157 138 152 99 112 139 191 266 284 305 310 284 314 18 234 6 343 329 240 230 211 212
11 7 1 352 360 2 12 18 25 86 152 162 165 162 214 229 131 150 159 163 163 170 154 172 125 134 138 136 20 112 291 325 50 349 38 311 96 39 348 341 7 322 266 247 234
6 3 357 348 333 345 339 11 33 92 142 152 156 152 248 210 235 166 163 148 167 173 128 176 140 98 121 118 72 101 91 161 26 331 36 284 127 29 11 24 20 339 312 253 237
2 358 354 343 321 324 301 351 74 111 132 143 120 245 259 231 194 183 173 156 150 161 117 113 116 83 138 130 129 35 115 31 334 45 338 352 81 29 23 21 15 7 356 295 257
360 354 350 337 312 322 177 139 116 108 139 143 243 273 237 181 153 158 167 144 144 138 131 150 93 140 120 186 219 140 150 193 267 125 307 285 118 25 27 27 32 24 18 15 360
358 351 348 332 291 146 134 131 252 160 188 230 191 260 263 81 143 157 166 150 126 167 174 147 199 204 187 162 130 141 167 264 263 246 270 271 203 35 28 35 28 29 25 21 20
357 351 348 330 204 145 124 96 122 287 297 242 251 262 263 17 124 136 159 170 174 181 140 170 233 211 156 157 158 167 191 252 287 197 244 306 188 81 39 38 37 28 28 26 26
357 352 352 336 153 141 114 97 331 192 284 291 207 217 212 188 224 190 180 154 169 176 189 215 134 135 164 163 179 197 219 225 274 319 211 254 204 198 114 65 53 43 35 31 32
357 358 9 107 136 142 123 337 331 170 320 264 234 248 160 167 212 185 182 164 176 214 171 237 194 216 218 226 204 228 210 231 242 263 274 297 278 211 179 74 45 41 37 30 39
359 9 26 99 96 85 326 330 107 158 316 52 138 158 147 196 131 186 179 153 183 171 179 188 177 175 188 207 181 227 156 192 227 231 228 212 251 235 176 188 60 41 33 38 48
3 28 42 45 53 352 331 334 139 249 248 30 124 167 158 227 170 122 169 93 108 155 221 239 186 204 227 163 188 141 172 122 124 187 245 241 233 215 205 168 152 108 60 53 74
8 66 45 40 323 337 344 100 239 218 341 7 10 351 251 202 218 172 172 190 203 189 229 237 236 219 195 238 167 187 195 250 222 205 254 156 208 270 175 171 173 162 161 140 132
9 78 30 12 354 351 14 75 220 4 330 350 335 316 220 202 196 209 163 203 219 193 169 216 228 202 190 214 227 194 207 226 254 228 247 175 228 201 178 152 166 170 175 168 162
5 10 17 355 352 352 67 219 283 335 328 321 314 294 220 216 306 211 218 224 216 198 215 201 234 135 210 155 190 168 208 273 221 80 253 243 224 242 193 199 187 189 186 183 177
354 346 14 351 349 29 85 238 299 18 329 311 288 321 282 288 294 270 208 158 168 202 220 213 253 228 153 130 58 226 144 173 189 240 239 209 237 238 210 219 206 205 201 190 185
12 20 355 353 6 48 59 8 312 358 5 313 307 294 280 297 268 249 238 205 206 152 177 162 221 176 164 205 206 157 195 89 181 208 256 266 232 214 211 211 203 205 202 192 190
353 14 355 360 36 29 37 329 320 338 7 338 298 280 266 285 259 247 243 262 358 265 223 137 197 232 221 113 303 196 243 206 221 217 232 280 262 172 243 215 197 199 198 194 197
8 306 358 21 59 23 331 315 317 9 3 348 325 5 1 296 281 244 237 89 13 327 231 181 216 238 226 199 167 222 187 186 108 71 223 242 252 138 173 174 192 195 198 198 201
5 356 3 42 44 13 352 344 335 353 91 0 348 26 350 307 303 288 308 18 341 3 13 230 199 227 242 259 139 204 201 202 228 239 251 241 269 179 196 203 196 206 198 200 207
16 59 25 348 1 352 321 352 331 345 351 3 126 39 5 297 311 287 8 333 324 6 12 340 248 225 251 250 241 264 257 220 218 239 239 259 240 232 217 216 216 219 201 201 206
22 359 4 5 314 334 9 39 8 348 318 338 6 341 333 283 314 310 340 304 292 332 340 359 272 267 267 263 248 258 255 252 237 241 244 258 259 236 243 236 235 218 204 208 207
28 26 304 28 354 335 49 351 322 340 292 318 340 319 303 313 314 294 279 267 265 282 297 299 287 230 260 254 251 258 243 236 234 229 233 240 257 209 225 232 237 239 224 223 213